AAL1122 SKBO-KDFW

Flight info

Callsign AAL1122
Flight time N/A
Altitude 34000
Route TOBKI4R VASIL UL423 PULOX DCT ARORO DCT PML UN653 SPP UM205 SIGMA/N0452F360 UA766 ITLOM DCT LEVAT UA766 KEHLI A766 SBI DCT IAH CQY3
Aircraft B738/M-SDE2E3FGHIRWXY/LB1

Departure

Time 2026-05-07 20:31
Airport El Dorado International Airport (SKBO)

Arrival

Time N/A
Airport Dallas Fort Worth International Airport (KDFW)
Time Latitude Longitude Altitude Speed Heading
2026-05-07 20:20 4.69810 -74.14559 8364 ft 0 kts 32°
2026-05-07 20:24 4.69811 -74.14559 8364 ft 0 kts 28°
2026-05-07 20:25 4.69813 -74.14560 8364 ft 0 kts 356°
2026-05-07 20:25 4.69815 -74.14563 8364 ft 1 kts 315°
2026-05-07 20:25 4.69814 -74.14584 8364 ft 8 kts 266°
2026-05-07 20:25 4.69816 -74.14673 8364 ft 18 kts 294°
2026-05-07 20:26 4.69902 -74.14791 8364 ft 21 kts 307°
2026-05-07 20:26 4.69885 -74.14915 8363 ft 21 kts 218°
2026-05-07 20:26 4.69900 -74.15039 8363 ft 20 kts 307°
2026-05-07 20:26 4.69983 -74.15150 8363 ft 20 kts 307°
2026-05-07 20:27 4.70064 -74.15257 8363 ft 19 kts 307°
2026-05-07 20:27 4.70150 -74.15371 8362 ft 23 kts 307°
2026-05-07 20:27 4.70256 -74.15509 8362 ft 27 kts 307°
2026-05-07 20:27 4.70378 -74.15669 8362 ft 31 kts 307°
2026-05-07 20:28 4.70509 -74.15843 8362 ft 30 kts 307°
2026-05-07 20:28 4.70630 -74.16003 8362 ft 28 kts 307°
2026-05-07 20:28 4.70746 -74.16155 8362 ft 27 kts 307°
2026-05-07 20:28 4.70855 -74.16299 8361 ft 25 kts 307°
2026-05-07 20:29 4.70964 -74.16445 8361 ft 28 kts 308°
2026-05-07 20:29 4.71080 -74.16595 8361 ft 26 kts 308°
2026-05-07 20:29 4.71189 -74.16737 8361 ft 25 kts 304°
2026-05-07 20:29 4.71127 -74.16862 8360 ft 20 kts 201°
2026-05-07 20:30 4.71023 -74.16877 8360 ft 7 kts 150°
2026-05-07 20:30 4.70980 -74.16821 8360 ft 25 kts 124°
2026-05-07 20:30 4.70752 -74.16518 8362 ft 82 kts 127°
2026-05-07 20:30 4.70296 -74.15922 8361 ft 132 kts 127°
2026-05-07 20:31 4.69647 -74.15079 8364 ft 173 kts 126°
2026-05-07 20:31 4.68881 -74.14031 8670 ft 194 kts 124°
2026-05-07 20:31 4.67996 -74.12887 8952 ft 220 kts 127°
2026-05-07 20:31 4.66761 -74.11954 9355 ft 233 kts 161°
2026-05-07 20:32 4.65138 -74.11817 9882 ft 239 kts 188°
2026-05-07 20:32 4.63573 -74.12484 10275 ft 248 kts 218°
2026-05-07 20:32 4.62541 -74.13822 10747 ft 249 kts 247°
2026-05-07 20:32 4.62126 -74.15528 11126 ft 256 kts 262°
2026-05-07 20:33 4.61923 -74.17304 11589 ft 257 kts 263°
2026-05-07 20:33 4.61739 -74.19105 11922 ft 266 kts 263°
2026-05-07 20:33 4.61546 -74.21018 12054 ft 282 kts 264°
2026-05-07 20:33 4.61345 -74.23027 12252 ft 299 kts 264°
2026-05-07 20:34 4.61130 -74.25171 12391 ft 319 kts 264°
2026-05-07 20:34 4.60902 -74.27458 12525 ft 339 kts 264°
2026-05-07 20:34 4.60660 -74.29875 12663 ft 357 kts 264°
2026-05-07 20:34 4.60408 -74.32395 12913 ft 368 kts 264°
2026-05-07 20:35 4.60149 -74.34974 13309 ft 375 kts 264°
2026-05-07 20:35 4.59899 -74.37585 13855 ft 377 kts 267°
2026-05-07 20:35 4.60136 -74.40204 14323 ft 380 kts 285°
2026-05-07 20:35 4.61121 -74.42649 14825 ft 380 kts 302°
2026-05-07 20:36 4.62682 -74.44789 15298 ft 381 kts 309°
2026-05-07 20:36 4.64336 -74.46836 15734 ft 385 kts 310°
2026-05-07 20:36 4.66037 -74.48928 16166 ft 388 kts 310°
2026-05-07 20:36 4.67739 -74.51044 16646 ft 390 kts 309°
2026-05-07 20:37 4.69437 -74.53184 17152 ft 393 kts 309°
2026-05-07 20:37 4.71136 -74.55344 17626 ft 396 kts 309°
2026-05-07 20:37 4.72848 -74.57526 18048 ft 400 kts 309°
2026-05-07 20:37 4.74619 -74.59686 18427 ft 402 kts 314°
2026-05-07 20:38 4.76694 -74.61564 18822 ft 403 kts 324°
2026-05-07 20:38 4.78944 -74.63193 19219 ft 404 kts 325°
2026-05-07 20:38 4.81236 -74.64842 19613 ft 407 kts 325°
2026-05-07 20:38 4.83562 -74.66542 19979 ft 410 kts 325°
2026-05-07 20:39 4.85817 -74.68239 20353 ft 412 kts 323°
2026-05-07 20:39 4.88085 -74.70022 20749 ft 414 kts 322°
2026-05-07 20:39 4.90353 -74.71818 21109 ft 417 kts 323°
2026-05-07 20:39 4.92581 -74.73691 21448 ft 420 kts 316°
2026-05-07 20:40 4.94512 -74.75907 21798 ft 423 kts 307°
2026-05-07 20:40 4.96066 -74.78422 22153 ft 426 kts 297°
2026-05-07 20:40 4.97382 -74.81096 22501 ft 429 kts 296°
2026-05-07 20:40 4.98665 -74.83807 22831 ft 432 kts 296°
2026-05-07 20:41 4.99952 -74.86539 23149 ft 434 kts 296°
2026-05-07 20:41 5.01253 -74.89279 23484 ft 436 kts 296°
2026-05-07 20:41 5.02575 -74.92029 23749 ft 438 kts 296°
2026-05-07 20:41 5.03908 -74.94780 24008 ft 440 kts 296°
2026-05-07 20:42 5.05252 -74.97543 24299 ft 441 kts 296°
2026-05-07 20:42 5.06580 -75.00270 24590 ft 442 kts 296°
2026-05-07 20:42 5.07932 -75.03044 24857 ft 443 kts 297°
2026-05-07 20:42 5.09291 -75.05833 25136 ft 445 kts 296°
2026-05-07 20:43 5.10653 -75.08629 25416 ft 446 kts 296°
2026-05-07 20:43 5.12018 -75.11435 25688 ft 447 kts 296°
2026-05-07 20:43 5.13384 -75.14243 25975 ft 449 kts 296°
2026-05-07 20:43 5.14762 -75.17059 26232 ft 450 kts 298°
2026-05-07 20:44 5.16387 -75.19748 26569 ft 452 kts 307°
2026-05-07 20:44 5.18395 -75.22169 26842 ft 452 kts 312°
2026-05-07 20:44 5.20498 -75.24521 27099 ft 453 kts 312°
2026-05-07 20:44 5.22624 -75.26867 27328 ft 455 kts 312°
2026-05-07 20:45 5.24753 -75.29219 27555 ft 456 kts 312°
2026-05-07 20:45 5.26882 -75.31590 27781 ft 458 kts 312°
2026-05-07 20:45 5.29012 -75.33980 27996 ft 459 kts 311°
2026-05-07 20:45 5.31136 -75.36376 28211 ft 460 kts 311°
2026-05-07 20:46 5.33262 -75.38782 28402 ft 462 kts 311°
2026-05-07 20:46 5.35396 -75.41202 28590 ft 463 kts 311°
2026-05-07 20:46 5.37532 -75.43624 28774 ft 464 kts 311°
2026-05-07 20:46 5.39674 -75.46053 28938 ft 466 kts 311°
2026-05-07 20:47 5.41828 -75.48495 29133 ft 467 kts 311°
2026-05-07 20:47 5.43961 -75.50913 29334 ft 468 kts 311°
2026-05-07 20:47 5.46124 -75.53365 29542 ft 469 kts 311°
2026-05-07 20:47 5.48285 -75.55815 29821 ft 468 kts 311°
2026-05-07 20:48 5.50441 -75.58259 30133 ft 466 kts 311°
2026-05-07 20:48 5.52588 -75.60691 30436 ft 464 kts 310°
2026-05-07 20:48 5.54725 -75.63115 30719 ft 462 kts 310°
2026-05-07 20:48 5.56854 -75.65530 30963 ft 462 kts 310°
2026-05-07 20:49 5.58979 -75.67940 31218 ft 461 kts 310°
2026-05-07 20:49 5.61101 -75.70349 31497 ft 459 kts 310°
2026-05-07 20:49 5.63213 -75.72745 31821 ft 457 kts 310°
2026-05-07 20:49 5.65314 -75.75131 32119 ft 455 kts 310°
2026-05-07 20:50 5.67413 -75.77513 32357 ft 455 kts 310°
2026-05-07 20:50 5.68800 -75.79086 32497 ft 455 kts 310°
2026-05-07 20:50 5.70922 -75.81445 32728 ft 455 kts 314°
2026-05-07 20:50 5.73295 -75.83549 32971 ft 455 kts 320°
2026-05-07 20:51 5.75792 -75.85495 33247 ft 454 kts 321°
2026-05-07 20:51 5.78316 -75.87410 33486 ft 454 kts 322°
2026-05-07 20:51 5.80839 -75.89315 33707 ft 454 kts 322°
2026-05-07 20:51 5.83353 -75.91220 33907 ft 453 kts 321°
2026-05-07 20:52 5.85878 -75.93149 33886 ft 457 kts 321°
2026-05-07 20:52 5.90953 -75.97057 33909 ft 461 kts 321°
2026-05-07 20:53 5.96062 -76.01013 33912 ft 466 kts 321°
2026-05-07 20:53 6.01191 -76.04989 33912 ft 470 kts 321°
2026-05-07 20:54 6.06377 -76.09008 33915 ft 472 kts 321°
2026-05-07 20:54 6.11581 -76.13042 33915 ft 472 kts 321°
2026-05-07 20:55 6.16776 -76.17069 33927 ft 471 kts 321°
2026-05-07 20:55 6.21954 -76.21084 33926 ft 469 kts 321°
2026-05-07 20:56 6.27116 -76.25087 33933 ft 468 kts 321°
2026-05-07 20:56 6.32259 -76.29078 33932 ft 466 kts 321°
2026-05-07 20:57 6.37360 -76.33037 33927 ft 465 kts 321°
2026-05-07 20:57 6.42478 -76.37010 33918 ft 464 kts 321°
2026-05-07 20:58 6.47580 -76.40972 33919 ft 463 kts 321°
2026-05-07 20:58 6.52675 -76.44928 33911 ft 462 kts 322°
2026-05-07 20:59 6.57756 -76.48876 33901 ft 461 kts 322°
2026-05-07 20:59 6.62810 -76.52803 33893 ft 461 kts 322°
2026-05-07 21:00 6.67893 -76.56755 33882 ft 462 kts 322°
2026-05-07 21:00 6.72982 -76.60711 33880 ft 463 kts 322°
2026-05-07 21:01 6.78087 -76.64681 33867 ft 464 kts 322°
2026-05-07 21:01 6.83211 -76.68667 33863 ft 466 kts 322°
2026-05-07 21:02 6.88351 -76.72667 33860 ft 467 kts 322°
2026-05-07 21:02 6.93472 -76.76653 33857 ft 469 kts 322°
2026-05-07 21:03 6.98636 -76.80673 33849 ft 469 kts 322°
2026-05-07 21:03 7.03809 -76.84702 33849 ft 470 kts 322°
2026-05-07 21:04 7.08980 -76.88730 33849 ft 470 kts 322°
2026-05-07 21:04 7.14164 -76.92770 33842 ft 470 kts 322°
2026-05-07 21:05 7.19340 -76.96805 33839 ft 470 kts 322°
2026-05-07 21:05 7.24471 -77.00805 33844 ft 469 kts 322°
2026-05-07 21:06 7.29633 -77.04832 33842 ft 469 kts 322°
2026-05-07 21:06 7.34790 -77.08855 33844 ft 468 kts 322°
2026-05-07 21:07 7.39934 -77.12869 33849 ft 467 kts 322°
2026-05-07 21:07 7.45077 -77.16884 33837 ft 467 kts 322°
2026-05-07 21:08 7.50209 -77.20893 33846 ft 466 kts 322°
2026-05-07 21:08 7.55337 -77.24898 33847 ft 466 kts 322°
2026-05-07 21:09 7.60459 -77.28901 33853 ft 466 kts 322°
2026-05-07 21:09 7.65554 -77.32884 33851 ft 466 kts 322°
2026-05-07 21:10 7.70678 -77.36891 33857 ft 466 kts 322°
2026-05-07 21:10 7.75549 -77.41199 33862 ft 466 kts 313°
2026-05-07 21:11 7.79890 -77.46060 33868 ft 466 kts 312°
2026-05-07 21:11 7.86379 -77.53407 33864 ft 467 kts 312°
2026-05-07 21:12 7.90711 -77.58248 33864 ft 467 kts 313°
2026-05-07 21:12 7.95083 -77.63114 33861 ft 468 kts 313°
2026-05-07 21:13 7.99459 -77.67985 33860 ft 469 kts 313°
2026-05-07 21:13 8.03840 -77.72865 33857 ft 469 kts 313°
2026-05-07 21:14 8.08224 -77.77751 33851 ft 469 kts 313°
2026-05-07 21:14 8.12602 -77.82634 33857 ft 469 kts 313°
2026-05-07 21:15 8.16984 -77.87522 33847 ft 469 kts 313°
2026-05-07 21:15 8.21365 -77.92410 33849 ft 469 kts 313°
2026-05-07 21:16 8.25715 -77.97267 33851 ft 469 kts 313°
2026-05-07 21:16 8.30092 -78.02155 33849 ft 469 kts 313°
2026-05-07 21:17 8.34465 -78.07040 33849 ft 468 kts 313°
2026-05-07 21:17 8.38833 -78.11922 33846 ft 468 kts 313°
2026-05-07 21:18 8.43477 -78.16522 33855 ft 467 kts 320°
2026-05-07 21:18 8.48509 -78.20687 33851 ft 468 kts 322°
2026-05-07 21:19 8.53575 -78.24828 33855 ft 468 kts 321°
2026-05-07 21:19 8.58584 -78.28985 33857 ft 469 kts 321°
2026-05-07 21:20 8.63611 -78.33200 33859 ft 470 kts 321°
2026-05-07 21:20 8.68645 -78.37434 33853 ft 471 kts 321°
2026-05-07 21:21 8.73681 -78.41670 33854 ft 472 kts 321°
2026-05-07 21:21 8.78733 -78.45919 33850 ft 472 kts 321°
2026-05-07 21:22 8.83788 -78.50170 33860 ft 473 kts 321°
2026-05-07 21:22 8.88816 -78.54401 33861 ft 473 kts 321°
2026-05-07 21:23 8.93884 -78.58668 33858 ft 473 kts 321°
2026-05-07 21:23 8.98955 -78.62937 33863 ft 474 kts 321°
2026-05-07 21:24 9.04031 -78.67213 33861 ft 474 kts 321°
2026-05-07 21:24 9.09100 -78.71485 33855 ft 475 kts 321°
2026-05-07 21:25 9.14150 -78.75742 33853 ft 475 kts 321°
2026-05-07 21:25 9.19230 -78.80027 33853 ft 475 kts 321°
2026-05-07 21:26 9.24307 -78.84310 33853 ft 475 kts 321°
2026-05-07 21:26 9.29388 -78.88599 33850 ft 475 kts 321°
2026-05-07 21:27 9.34464 -78.92884 33855 ft 475 kts 321°
2026-05-07 21:27 9.39512 -78.97149 33848 ft 476 kts 321°
2026-05-07 21:28 9.44598 -79.01446 33853 ft 476 kts 321°
2026-05-07 21:28 9.49678 -79.05741 33860 ft 476 kts 321°
2026-05-07 21:29 9.54766 -79.10043 33867 ft 476 kts 321°
2026-05-07 21:29 9.59853 -79.14347 33860 ft 477 kts 321°
2026-05-07 21:30 9.64953 -79.18664 33864 ft 477 kts 321°
2026-05-07 21:30 9.70045 -79.22975 33862 ft 477 kts 321°
2026-05-07 21:31 9.75143 -79.27293 33862 ft 478 kts 321°
2026-05-07 21:31 9.80216 -79.31592 33865 ft 478 kts 321°
2026-05-07 21:32 9.85321 -79.35920 33866 ft 478 kts 321°
2026-05-07 21:32 9.90426 -79.40250 33864 ft 478 kts 321°
2026-05-07 21:33 9.95535 -79.44585 33870 ft 479 kts 321°
2026-05-07 21:33 10.00646 -79.48923 33872 ft 479 kts 321°
2026-05-07 21:34 10.05765 -79.53270 33872 ft 479 kts 321°
2026-05-07 21:34 10.10876 -79.57612 33875 ft 479 kts 321°
2026-05-07 21:35 10.15991 -79.61960 33876 ft 479 kts 321°
2026-05-07 21:35 10.21103 -79.66307 33875 ft 479 kts 321°
2026-05-07 21:36 10.26181 -79.70627 33874 ft 480 kts 321°
2026-05-07 21:36 10.31295 -79.74979 33873 ft 480 kts 321°
2026-05-07 21:37 10.36411 -79.79337 33876 ft 480 kts 321°
2026-05-07 21:37 10.41521 -79.83689 33877 ft 480 kts 321°
2026-05-07 21:38 10.45808 -79.87345 33876 ft 480 kts 321°
2026-05-07 21:38 10.50887 -79.91680 33877 ft 480 kts 321°
2026-05-07 21:39 10.55994 -79.96043 33882 ft 480 kts 321°
2026-05-07 21:39 10.61100 -80.00407 33879 ft 480 kts 321°
2026-05-07 21:40 10.66206 -80.04773 33885 ft 480 kts 321°
2026-05-07 21:40 10.71316 -80.09145 33880 ft 480 kts 321°
2026-05-07 21:41 10.76425 -80.13518 33885 ft 480 kts 321°
2026-05-07 21:41 10.81532 -80.17891 33882 ft 480 kts 321°
2026-05-07 21:42 10.86615 -80.22244 33885 ft 480 kts 321°
2026-05-07 21:42 10.91723 -80.26623 33882 ft 480 kts 321°
2026-05-07 21:43 10.96826 -80.30998 33885 ft 480 kts 321°
2026-05-07 21:43 11.01939 -80.35385 33887 ft 480 kts 321°
2026-05-07 21:44 11.07011 -80.39737 33886 ft 480 kts 321°
2026-05-07 21:44 11.12116 -80.44121 33885 ft 480 kts 321°
2026-05-07 21:45 11.17227 -80.48512 33884 ft 480 kts 321°
2026-05-07 21:45 11.22338 -80.52904 33885 ft 480 kts 321°
2026-05-07 21:46 11.27450 -80.57299 33889 ft 481 kts 321°
2026-05-07 21:46 11.32564 -80.61700 33888 ft 481 kts 321°
2026-05-07 21:47 11.37648 -80.66076 33891 ft 481 kts 321°
2026-05-07 21:47 11.42765 -80.70483 33887 ft 482 kts 321°
2026-05-07 21:48 11.47887 -80.74896 33887 ft 482 kts 321°
2026-05-07 21:48 11.53004 -80.79306 33892 ft 482 kts 321°
2026-05-07 21:49 11.58129 -80.83727 33893 ft 482 kts 321°
2026-05-07 21:49 11.63256 -80.88152 33893 ft 482 kts 321°
2026-05-07 21:50 11.68348 -80.92548 33894 ft 482 kts 321°
2026-05-07 21:50 11.73476 -80.96973 33897 ft 482 kts 321°
2026-05-07 21:51 11.78614 -81.01406 33898 ft 482 kts 321°
2026-05-07 21:51 11.83741 -81.05833 33897 ft 482 kts 321°
2026-05-07 21:52 11.88831 -81.10232 33896 ft 482 kts 321°
2026-05-07 21:52 11.93958 -81.14664 33894 ft 483 kts 321°
2026-05-07 21:53 11.99082 -81.19097 33896 ft 483 kts 321°
2026-05-07 21:53 12.04206 -81.23532 33897 ft 483 kts 321°
2026-05-07 21:54 12.09337 -81.27975 33899 ft 483 kts 321°
2026-05-07 21:54 12.14461 -81.32415 33899 ft 483 kts 321°
2026-05-07 21:55 12.19588 -81.36860 33898 ft 483 kts 321°
2026-05-07 21:55 12.24711 -81.41304 33901 ft 483 kts 321°
2026-05-07 21:56 12.29827 -81.45743 33900 ft 483 kts 321°
2026-05-07 21:56 12.34913 -81.50159 33904 ft 482 kts 321°
2026-05-07 21:57 12.40032 -81.54606 33905 ft 482 kts 321°
2026-05-07 21:57 12.45147 -81.59053 33909 ft 482 kts 321°
2026-05-07 21:58 12.50267 -81.63506 33915 ft 482 kts 321°
2026-05-07 21:58 12.55381 -81.67956 33911 ft 482 kts 321°
2026-05-07 21:59 12.60681 -81.72149 33910 ft 480 kts 329°
2026-05-07 21:59 12.66363 -81.75746 33908 ft 480 kts 330°
2026-05-07 22:00 12.72071 -81.79303 33911 ft 480 kts 330°
2026-05-07 22:00 12.77751 -81.82888 33910 ft 479 kts 329°
2026-05-07 22:01 12.83380 -81.86475 33910 ft 479 kts 329°
2026-05-07 22:01 12.89043 -81.90093 33908 ft 479 kts 329°
2026-05-07 22:02 12.94698 -81.93708 33912 ft 479 kts 329°
2026-05-07 22:02 13.00356 -81.97324 33890 ft 479 kts 329°
2026-05-07 22:03 13.06006 -82.00937 33915 ft 478 kts 329°
2026-05-07 22:03 13.11657 -82.04553 33919 ft 478 kts 329°
2026-05-07 22:04 13.17304 -82.08167 33912 ft 478 kts 329°
2026-05-07 22:04 13.22945 -82.11780 33915 ft 477 kts 329°
2026-05-07 22:05 13.28546 -82.15369 33910 ft 477 kts 329°
2026-05-07 22:05 13.34180 -82.18982 33908 ft 477 kts 329°
2026-05-07 22:06 13.39813 -82.22595 33916 ft 477 kts 329°
2026-05-07 22:06 13.45442 -82.26208 33915 ft 476 kts 329°
2026-05-07 22:07 13.51067 -82.29822 33919 ft 476 kts 329°
2026-05-07 22:07 13.56650 -82.33409 33915 ft 476 kts 329°
2026-05-07 22:08 13.62270 -82.37023 33918 ft 476 kts 329°
2026-05-07 22:08 13.67887 -82.40638 33918 ft 476 kts 329°
2026-05-07 22:09 13.73514 -82.44259 33921 ft 476 kts 329°
2026-05-07 22:09 13.79142 -82.47885 33921 ft 477 kts 329°
2026-05-07 22:10 13.84764 -82.51509 33917 ft 477 kts 329°
2026-05-07 22:10 13.90357 -82.55116 33920 ft 477 kts 329°
2026-05-07 22:11 13.95989 -82.58751 33920 ft 477 kts 329°
2026-05-07 22:11 14.01618 -82.62390 33921 ft 478 kts 329°
2026-05-07 22:12 14.07252 -82.66035 33922 ft 478 kts 329°
2026-05-07 22:12 14.12886 -82.69681 33918 ft 478 kts 329°
2026-05-07 22:13 14.18486 -82.73308 33927 ft 478 kts 329°
2026-05-07 22:13 14.24126 -82.76963 33917 ft 479 kts 329°
2026-05-07 22:14 14.29770 -82.80623 33925 ft 479 kts 329°
2026-05-07 22:14 14.35407 -82.84280 33919 ft 479 kts 329°
2026-05-07 22:15 14.41043 -82.87939 33919 ft 478 kts 329°
2026-05-07 22:15 14.46676 -82.91599 33921 ft 478 kts 329°
2026-05-07 22:16 14.52275 -82.95238 33923 ft 478 kts 329°
2026-05-07 22:16 14.57904 -82.98898 33923 ft 478 kts 329°
2026-05-07 22:17 14.63526 -83.02558 33923 ft 478 kts 329°
2026-05-07 22:17 14.69150 -83.06220 33915 ft 478 kts 329°
2026-05-07 22:18 14.77553 -83.11696 33915 ft 477 kts 329°
2026-05-07 22:19 14.83170 -83.15359 33923 ft 477 kts 329°
2026-05-07 22:19 14.88794 -83.19028 33908 ft 477 kts 329°
2026-05-07 22:20 14.94410 -83.22696 33916 ft 477 kts 329°
2026-05-07 22:20 15.00027 -83.26366 33915 ft 477 kts 329°
2026-05-07 22:21 15.05641 -83.30036 33915 ft 477 kts 329°
2026-05-07 22:21 15.11252 -83.33707 33916 ft 477 kts 329°
2026-05-07 22:22 15.16826 -83.37357 33919 ft 477 kts 329°
2026-05-07 22:22 15.22441 -83.41037 33913 ft 477 kts 329°
2026-05-07 22:23 15.28053 -83.44714 33916 ft 477 kts 329°
2026-05-07 22:23 15.33660 -83.48391 33914 ft 477 kts 329°
2026-05-07 22:24 15.39269 -83.52073 33917 ft 477 kts 329°
2026-05-07 22:24 15.44883 -83.55760 33918 ft 477 kts 329°
2026-05-07 22:25 15.49538 -83.58819 33916 ft 477 kts 329°
2026-05-07 22:25 15.56054 -83.63104 33918 ft 477 kts 329°
2026-05-07 22:26 15.60718 -83.66173 33914 ft 477 kts 329°
2026-05-07 22:26 15.66318 -83.69859 33923 ft 476 kts 328°
2026-05-07 22:27 15.71914 -83.73546 33918 ft 476 kts 328°
2026-05-07 22:27 15.77509 -83.77236 33916 ft 476 kts 329°
2026-05-07 22:28 15.83095 -83.80921 33921 ft 476 kts 329°
2026-05-07 22:28 15.88676 -83.84605 33917 ft 475 kts 328°
2026-05-07 22:29 15.94261 -83.88295 33919 ft 475 kts 328°
2026-05-07 22:29 15.99806 -83.91960 33924 ft 475 kts 329°
2026-05-07 22:30 16.05384 -83.95649 33920 ft 475 kts 329°
2026-05-07 22:30 16.10957 -83.99339 33921 ft 475 kts 328°
2026-05-07 22:31 16.16528 -84.03029 33919 ft 474 kts 328°
2026-05-07 22:31 16.22093 -84.06717 33924 ft 474 kts 328°
2026-05-07 22:32 16.27657 -84.10408 33918 ft 474 kts 328°
2026-05-07 22:32 16.33216 -84.14098 33918 ft 474 kts 328°
2026-05-07 22:33 16.38742 -84.17769 33918 ft 474 kts 328°
2026-05-07 22:33 16.44297 -84.21461 33922 ft 474 kts 328°
2026-05-07 22:34 16.49854 -84.25151 33919 ft 474 kts 328°
2026-05-07 22:34 16.55412 -84.28842 33922 ft 473 kts 328°
2026-05-07 22:35 16.60970 -84.32538 33925 ft 473 kts 328°
2026-05-07 22:35 16.66522 -84.36233 33925 ft 473 kts 328°
2026-05-07 22:36 16.72083 -84.39937 33924 ft 473 kts 328°
2026-05-07 22:36 16.77598 -84.43613 33924 ft 473 kts 328°
2026-05-07 22:37 16.83147 -84.47313 33926 ft 473 kts 328°
2026-05-07 22:37 16.88693 -84.51014 33927 ft 473 kts 328°
2026-05-07 22:38 16.94235 -84.54715 33924 ft 473 kts 328°
2026-05-07 22:38 16.99779 -84.58421 33924 ft 473 kts 328°
2026-05-07 22:39 17.05313 -84.62123 33924 ft 472 kts 328°
2026-05-07 22:39 17.10852 -84.65830 33926 ft 472 kts 328°
2026-05-07 22:40 17.16386 -84.69536 33923 ft 472 kts 328°
2026-05-07 22:40 17.21915 -84.73243 33922 ft 472 kts 328°
2026-05-07 22:41 17.27447 -84.76953 33922 ft 472 kts 328°
2026-05-07 22:41 17.32972 -84.80661 33925 ft 472 kts 328°
2026-05-07 22:42 17.38500 -84.84375 33929 ft 472 kts 328°
2026-05-07 22:42 17.44022 -84.88087 33928 ft 472 kts 328°
2026-05-07 22:43 17.49508 -84.91778 33927 ft 472 kts 328°
2026-05-07 22:43 17.55031 -84.95496 33931 ft 471 kts 328°
2026-05-07 22:44 17.60550 -84.99214 33929 ft 471 kts 328°
2026-05-07 22:44 17.66066 -85.02932 33928 ft 471 kts 328°
2026-05-07 22:45 17.71579 -85.06652 33931 ft 471 kts 328°
2026-05-07 22:45 17.77090 -85.10372 33932 ft 471 kts 328°
2026-05-07 22:46 17.82597 -85.14094 33928 ft 471 kts 328°
2026-05-07 22:46 17.88106 -85.17819 33935 ft 471 kts 328°
2026-05-07 22:47 17.93617 -85.21548 33929 ft 471 kts 327°
2026-05-07 22:47 17.99125 -85.25278 33932 ft 471 kts 327°
2026-05-07 22:48 18.04644 -85.29018 33931 ft 471 kts 327°
2026-05-07 22:48 18.10121 -85.32733 33933 ft 471 kts 327°
2026-05-07 22:49 18.15632 -85.36474 33931 ft 471 kts 327°
2026-05-07 22:49 18.21142 -85.40216 33936 ft 472 kts 327°
2026-05-07 22:50 18.26657 -85.43966 33934 ft 472 kts 327°
2026-05-07 22:50 18.32168 -85.47715 33935 ft 472 kts 327°
2026-05-07 22:51 18.37683 -85.51469 33937 ft 472 kts 327°
2026-05-07 22:51 18.43148 -85.55191 33933 ft 463 kts 326°
2026-05-07 22:52 18.48482 -85.58829 33938 ft 459 kts 325°
2026-05-07 22:52 18.53839 -85.62486 33939 ft 459 kts 325°
2026-05-07 22:53 18.59203 -85.66148 33937 ft 459 kts 325°
2026-05-07 22:53 18.64565 -85.69813 33938 ft 460 kts 325°
2026-05-07 22:54 18.69936 -85.73487 33939 ft 460 kts 325°
2026-05-07 22:54 18.75313 -85.77167 33937 ft 461 kts 325°
2026-05-07 22:55 18.80677 -85.80842 33939 ft 462 kts 325°
2026-05-07 22:55 18.86080 -85.84546 33938 ft 463 kts 325°
2026-05-07 22:56 18.91479 -85.88250 33940 ft 463 kts 325°
2026-05-07 22:56 18.96879 -85.91957 33939 ft 463 kts 325°
2026-05-07 22:57 19.02285 -85.95672 33940 ft 464 kts 325°
2026-05-07 22:57 19.07698 -85.99395 33940 ft 464 kts 325°
2026-05-07 22:58 19.13102 -86.03114 33939 ft 463 kts 325°
2026-05-07 22:58 19.18502 -86.06833 33941 ft 463 kts 325°
2026-05-07 22:59 19.23897 -86.10552 33939 ft 463 kts 325°
2026-05-07 22:59 19.29289 -86.14272 33946 ft 462 kts 325°
2026-05-07 23:00 19.34673 -86.17990 33941 ft 462 kts 325°
2026-05-07 23:00 19.40023 -86.21687 33940 ft 461 kts 325°
2026-05-07 23:01 19.45404 -86.25408 33941 ft 461 kts 325°
2026-05-07 23:01 19.50781 -86.29131 33943 ft 461 kts 325°
2026-05-07 23:02 19.56147 -86.32848 33938 ft 461 kts 325°
2026-05-07 23:02 19.61513 -86.36565 33942 ft 461 kts 326°
2026-05-07 23:03 19.67027 -86.40047 33940 ft 461 kts 329°
2026-05-07 23:03 19.72623 -86.43374 33941 ft 461 kts 329°
2026-05-07 23:04 19.78211 -86.46723 33942 ft 461 kts 328°
2026-05-07 23:04 19.83786 -86.50104 33944 ft 461 kts 328°
2026-05-07 23:05 19.89328 -86.53479 33941 ft 462 kts 328°
2026-05-07 23:05 19.94898 -86.56874 33943 ft 462 kts 328°
2026-05-07 23:06 20.00469 -86.60271 33943 ft 462 kts 328°
2026-05-07 23:06 20.06041 -86.63670 33944 ft 462 kts 328°
2026-05-07 23:07 20.11609 -86.67071 33943 ft 461 kts 328°
2026-05-07 23:07 20.17177 -86.70478 33951 ft 461 kts 328°
2026-05-07 23:08 20.22736 -86.73906 33948 ft 461 kts 328°
2026-05-07 23:08 20.28282 -86.77332 33952 ft 461 kts 328°
2026-05-07 23:09 20.33832 -86.80761 33954 ft 461 kts 328°
2026-05-07 23:09 20.39376 -86.84189 33954 ft 461 kts 328°
2026-05-07 23:10 20.44887 -86.87599 33952 ft 461 kts 328°
2026-05-07 23:10 20.50429 -86.91031 33956 ft 461 kts 327°
2026-05-07 23:11 20.55822 -86.94707 33954 ft 460 kts 324°
2026-05-07 23:11 20.61121 -86.98538 33953 ft 460 kts 324°
2026-05-07 23:12 20.66423 -87.02350 33956 ft 460 kts 324°
2026-05-07 23:12 20.71749 -87.06145 33954 ft 460 kts 324°
2026-05-07 23:13 20.77075 -87.09932 33954 ft 460 kts 324°
2026-05-07 23:13 20.81508 -87.13088 33957 ft 460 kts 324°
2026-05-07 23:14 20.86838 -87.16888 33949 ft 460 kts 324°
2026-05-07 23:14 20.92175 -87.20695 33949 ft 460 kts 324°
2026-05-07 23:15 20.97501 -87.24502 33948 ft 461 kts 324°
2026-05-07 23:15 21.02826 -87.28322 33947 ft 461 kts 324°
2026-05-07 23:16 21.08147 -87.32144 33942 ft 461 kts 324°
2026-05-07 23:16 21.13434 -87.35944 33941 ft 461 kts 324°
2026-05-07 23:17 21.18765 -87.39779 33938 ft 461 kts 324°
2026-05-07 23:17 21.24082 -87.43607 33935 ft 461 kts 324°
2026-05-07 23:18 21.29404 -87.47442 33930 ft 460 kts 324°
2026-05-07 23:18 21.34722 -87.51277 33922 ft 460 kts 324°
2026-05-07 23:19 21.40037 -87.55115 33925 ft 460 kts 324°
2026-05-07 23:19 21.45342 -87.58949 33921 ft 460 kts 324°
2026-05-07 23:20 21.50651 -87.62785 33919 ft 460 kts 324°
2026-05-07 23:20 21.55930 -87.66599 33919 ft 459 kts 324°
2026-05-07 23:21 21.61236 -87.70438 33915 ft 459 kts 323°
2026-05-07 23:21 21.66533 -87.74273 33910 ft 459 kts 323°
2026-05-07 23:22 21.71832 -87.78115 33911 ft 458 kts 323°
2026-05-07 23:22 21.77115 -87.81949 33909 ft 458 kts 323°
2026-05-07 23:23 21.82370 -87.85763 33914 ft 458 kts 323°
2026-05-07 23:23 21.87650 -87.89599 33908 ft 458 kts 323°
2026-05-07 23:24 21.92931 -87.93439 33909 ft 457 kts 323°
2026-05-07 23:24 21.98197 -87.97273 33906 ft 457 kts 323°
2026-05-07 23:25 22.03470 -88.01116 33909 ft 457 kts 323°
2026-05-07 23:25 22.08736 -88.04958 33909 ft 457 kts 323°
2026-05-07 23:26 22.13999 -88.08801 33910 ft 457 kts 323°
2026-05-07 23:26 22.19264 -88.12649 33910 ft 457 kts 323°
2026-05-07 23:27 22.27114 -88.18406 33913 ft 457 kts 323°
2026-05-07 23:27 22.32374 -88.22270 33916 ft 457 kts 323°
2026-05-07 23:28 22.37643 -88.26145 33918 ft 457 kts 323°
2026-05-07 23:28 22.42904 -88.30016 33918 ft 458 kts 322°
2026-05-07 23:29 22.48166 -88.33893 33920 ft 458 kts 322°
2026-05-07 23:29 22.53438 -88.37780 33925 ft 458 kts 322°
2026-05-07 23:30 22.58709 -88.41670 33924 ft 458 kts 322°
2026-05-07 23:30 22.63985 -88.45566 33928 ft 459 kts 322°
2026-05-07 23:31 22.69228 -88.49436 33925 ft 459 kts 322°
2026-05-07 23:31 22.74513 -88.53330 33929 ft 459 kts 322°
2026-05-07 23:32 22.79786 -88.57217 33927 ft 459 kts 322°
2026-05-07 23:32 22.85062 -88.61114 33934 ft 459 kts 322°
2026-05-07 23:33 22.90341 -88.65017 33938 ft 459 kts 322°
2026-05-07 23:33 22.95577 -88.68892 33938 ft 458 kts 322°
2026-05-07 23:34 23.00846 -88.72796 33936 ft 458 kts 322°
2026-05-07 23:34 23.06118 -88.76705 33941 ft 458 kts 322°
2026-05-07 23:35 23.11388 -88.80616 33940 ft 458 kts 322°
2026-05-07 23:35 23.16650 -88.84528 33942 ft 458 kts 322°
2026-05-07 23:36 23.21908 -88.88442 33940 ft 458 kts 322°
2026-05-07 23:36 23.27161 -88.92357 33943 ft 458 kts 322°
2026-05-07 23:37 23.32413 -88.96275 33944 ft 457 kts 322°
2026-05-07 23:37 23.37657 -89.00191 33945 ft 457 kts 322°
2026-05-07 23:38 23.42903 -89.04112 33942 ft 457 kts 321°
2026-05-07 23:38 23.48116 -89.08012 33946 ft 457 kts 321°
2026-05-07 23:39 23.53350 -89.11935 33944 ft 456 kts 321°
2026-05-07 23:39 23.58580 -89.15866 33944 ft 456 kts 321°
2026-05-07 23:40 23.63799 -89.19794 33947 ft 456 kts 321°
2026-05-07 23:40 23.69019 -89.23727 33950 ft 456 kts 321°
2026-05-07 23:41 23.74232 -89.27658 33949 ft 455 kts 321°
2026-05-07 23:41 23.79442 -89.31591 33947 ft 455 kts 321°
2026-05-07 23:42 23.84650 -89.35526 33946 ft 455 kts 321°
2026-05-07 23:42 23.89846 -89.39456 33952 ft 454 kts 321°
2026-05-07 23:43 23.95038 -89.43385 33950 ft 454 kts 321°
2026-05-07 23:43 24.00232 -89.47304 33949 ft 454 kts 321°
2026-05-07 23:44 24.05392 -89.51199 33954 ft 453 kts 321°
2026-05-07 23:44 24.10583 -89.55123 33948 ft 453 kts 321°
2026-05-07 23:45 24.15769 -89.59049 33946 ft 453 kts 321°
2026-05-07 23:45 24.20953 -89.62978 33952 ft 453 kts 321°
2026-05-07 23:46 24.26135 -89.66909 33951 ft 453 kts 321°
2026-05-07 23:46 24.31315 -89.70842 33951 ft 453 kts 321°
2026-05-07 23:47 24.36493 -89.74778 33950 ft 453 kts 321°
2026-05-07 23:47 24.41637 -89.78693 33947 ft 453 kts 321°